星链-34039 (STARLINK-34039)

导读 | 豆包AI

STARLINK-34039是美国太空探索技术公司星链星座的一员,于2025年5月13日在美国发射升空。星链项目旨在构建全球卫星互联网星座,为全球偏远地区、海上航运、航空飞行等场景提供高速低延迟的宽带网络服务,该卫星入轨后将参与星座组网,进一步拓展星链系统的全球覆盖能力。

Basic Information
目录编号:
63946
目录名称:
STARLINK-34039
国际标识:
2025-098W
轨道中心:
EARTH
卫星名称:
星链-34039
卫星全名:
星链-34039 (STARLINK-34039)
卫星状态:
在轨 (已飞行305 天)
发射日期:
2025-05-13 UTC
国别 :
美国 (US)
星等 :
--
Orbit Information
数据来源 国际轨道数据 AOE轨道数据
星历时间 2026-03-14T22:05:50+0800
6小时前
查看轨道信息
2026-03-14T09:00:00+0800
19小时前
查看轨道信息
半长轴 6950.742km 6950.082km
偏心率 0.0001151 0.0002987
轨道倾角 70.000° 69.993°
近地点辐角 236.140° 258.894°
升交点赤经 262.204° 263.583°
平近点角 123.965° 38.549°
近地点 571.804km 569.869km
远地点 573.406km 574.021km
周期 96.118分钟 96.105分钟
每日圈数 14.981527 14.98366
Detailed Information
固有亮度:
5
最大亮度:
2.5
卫星平台:
Starlink V1.0
覆盖范围:
全球
运营商:
太空探索技术公司
运营商所在国:
美国
制造商(研发单位):
太空探索技术公司
制造商所在国:
美国
使用方式:
暂无
Satellite Introduction
Starlink 计划是 SpaceX 推出的全球卫星互联网项目,通过发射低轨道卫星,为全球尤其是偏远地区提供高速、低延迟的互联网服务。自 2019 年起,Starlink 已部署数千颗卫星,旨在缩小全球数字鸿沟,推动互联网普及。该项目还为军事、航空等行业提供通信支持,带来广泛经济效益。
2D Orbit Map
3D Orbit Map
Orbit Altitude Analysis Chart
Orbit Inclination Analysis Chart
Orbit Comprehensive Analysis Chart
View Comprehensive Chart